| time (UTC) | temp F | wind direction | speed knots | gust knots | rain 1hr in | rain 24hr in | rain mn in | humidity % | barometer mb |
| 20260508010214 | 26 | 247 | 0.0 | 0.9 | 0.00 | 0.00 | 0.00 | 69 | 1018.2 |
| 20260508005405 | 26 | 0 | 0.0 | 0.0 | 0.00 | 0.00 | 0.00 | 68 | 1018.1 |
| 20260508004712 | 26 | 0 | 0.0 | 0.0 | 0.00 | 0.00 | 0.00 | 68 | 1018.1 |
| 20260508003815 | 27 | 0 | 0.0 | 0.0 | 0.00 | 0.00 | 0.00 | 67 | 1018.1 |
| 20260508002703 | 27 | 0 | 0.0 | 0.0 | 0.00 | 0.00 | 0.00 | 66 | 1018.1 |
| 20260508002015 | 27 | 0 | 0.0 | 0.0 | 0.00 | 0.00 | 0.00 | 66 | 1018.2 |
| 20260508000904 | 28 | 225 | 0.0 | 0.9 | 0.00 | 0.00 | 0.00 | 66 | 1018.1 |
| 20260508000214 | 28 | 0 | 0.0 | 0.0 | 0.00 | 0.00 | 0.00 | 65 | 1018.1 |
| 20260507235616 | 27 | 0 | 0.0 | 0.0 | 0.00 | 0.00 | 0.00 | 65 | 1018.1 |
| 20260507234503 | 28 | 0 | 0.0 | 0.0 | 0.00 | 0.00 | 0.00 | 65 | 1018.0 |
| 20260507233605 | 28 | 0 | 0.0 | 0.0 | 0.00 | 0.00 | 0.00 | 65 | 1018.0 |
| 20260507232913 | 28 | 0 | 0.0 | 0.0 | 0.00 | 0.00 | 0.00 | 65 | 1017.9 |
| 20260507231803 | 28 | 0 | 0.0 | 0.0 | 0.00 | 0.00 | 0.00 | 64 | 1017.9 |
| 20260507230903 | 28 | 0 | 0.0 | 0.0 | 0.00 | 0.00 | 0.00 | 63 | 1017.9 |
| 20260507230003 | 29 | 0 | 0.0 | 0.0 | 0.00 | 0.00 | 0.00 | 62 | 1017.8 |
| 20260507225616 | 29 | 0 | 0.0 | 0.0 | 0.00 | 0.00 | 0.00 | 62 | 1017.7 |
| 20260507224504 | 29 | 0 | 0.0 | 0.0 | 0.00 | 0.00 | 0.00 | 60 | 1017.7 |
| 20260507223605 | 30 | 0 | 0.0 | 0.0 | 0.00 | 0.00 | 0.00 | 60 | 1017.8 |
| 20260507222703 | 30 | 0 | 0.0 | 0.0 | 0.00 | 0.00 | 0.00 | 59 | 1017.6 |
| 20260507222016 | 31 | 0 | 0.0 | 0.0 | 0.00 | 0.00 | 0.00 | 58 | 1017.7 |
| 20260507221113 | 31 | 0 | 0.0 | 0.0 | 0.00 | 0.00 | 0.00 | 57 | 1017.6 |
| 20260507220003 | 32 | 0 | 0.0 | 0.0 | 0.00 | 0.00 | 0.00 | 55 | 1017.6 |
| 20260507215617 | 32 | 0 | 0.0 | 0.0 | 0.00 | 0.00 | 0.00 | 55 | 1017.6 |
| 20260507214503 | 32 | 0 | 0.0 | 0.0 | 0.00 | 0.00 | 0.00 | 53 | 1017.5 |
| 20260507213603 | 32 | 0 | 0.0 | 0.0 | 0.00 | 0.00 | 0.00 | 54 | 1017.4 |
| 20260507212703 | 32 | 0 | 0.0 | 0.0 | 0.00 | 0.00 | 0.00 | 54 | 1017.3 |
| 20260507211803 | 32 | 0 | 0.0 | 0.0 | 0.00 | 0.00 | 0.00 | 53 | 1017.2 |
| 20260507211114 | 32 | 0 | 0.0 | 0.0 | 0.00 | 0.00 | 0.00 | 53 | 1017.2 |
| 20260507210003 | 32 | 0 | 0.0 | 0.0 | 0.00 | 0.00 | 0.00 | 52 | 1017.2 |
| 20260507205404 | 32 | 0 | 0.0 | 0.0 | 0.00 | 0.00 | 0.00 | 52 | 1017.2 |
| 20260507204503 | 32 | 0 | 0.0 | 0.0 | 0.00 | 0.00 | 0.00 | 51 | 1017.0 |
| 20260507203812 | 33 | 0 | 0.0 | 0.0 | 0.00 | 0.00 | 0.00 | 50 | 1017.0 |
| 20260507202703 | 33 | 0 | 0.0 | 0.0 | 0.00 | 0.00 | 0.00 | 50 | 1017.1 |
| 20260507202017 | 33 | 45 | 0.0 | 0.9 | 0.00 | 0.00 | 0.00 | 49 | 1017.2 |
| 20260507201115 | 34 | 0 | 0.0 | 0.0 | 0.00 | 0.00 | 0.00 | 47 | 1017.0 |
| 20260507200004 | 35 | 0 | 0.0 | 0.0 | 0.00 | 0.00 | 0.00 | 45 | 1016.8 |
| 20260507195411 | 35 | 0 | 0.0 | 0.0 | 0.00 | 0.00 | 0.00 | 43 | 1016.7 |
| 20260507194716 | 36 | 0 | 0.0 | 0.0 | 0.00 | 0.00 | 0.00 | 42 | 1016.7 |
| 20260507193813 | 37 | 0 | 0.0 | 0.0 | 0.00 | 0.00 | 0.00 | 41 | 1016.5 |
| 20260507192705 | 38 | 315 | 0.0 | 0.9 | 0.00 | 0.00 | 0.00 | 40 | 1016.2 |
| 20260507191803 | 39 | 315 | 0.9 | 0.9 | 0.00 | 0.00 | 0.00 | 38 | 1015.9 |
| 20260507190903 | 40 | 0 | 0.0 | 0.0 | 0.00 | 0.00 | 0.00 | 36 | 1015.6 |
| 20260507190004 | 40 | 46 | 0.0 | 2.6 | 0.00 | 0.00 | 0.00 | 35 | 1015.5 |
| 20260507185614 | 41 | 38 | 2.6 | 2.6 | 0.00 | 0.00 | 0.00 | 35 | 1015.6 |
| 20260507184503 | 42 | 61 | 1.7 | 3.5 | 0.00 | 0.00 | 0.00 | 34 | 1015.8 |
| 20260507183814 | 42 | 58 | 3.5 | 5.2 | 0.00 | 0.00 | 0.00 | 34 | 1015.9 |
| 20260507182916 | 43 | 42 | 5.2 | 5.2 | 0.00 | 0.00 | 0.00 | 33 | 1016.1 |
| 20260507182013 | 43 | 19 | 2.6 | 3.5 | 0.00 | 0.00 | 0.00 | 33 | 1016.1 |
| 20260507180903 | 44 | 26 | 2.6 | 2.6 | 0.00 | 0.00 | 0.00 | 32 | 1016.0 |
| 20260507180003 | 45 | 69 | 0.0 | 4.3 | 0.00 | 0.00 | 0.00 | 31 | 1016.1 |
| 20260507175615 | 45 | 55 | 0.0 | 4.3 | 0.00 | 0.00 | 0.00 | 31 | 1016.1 |
| 20260507174718 | 47 | 312 | 1.7 | 1.7 | 0.00 | 0.00 | 0.00 | 30 | 1016.3 |
| 20260507173814 | 47 | 159 | 0.0 | 1.7 | 0.00 | 0.00 | 0.00 | 29 | 1016.5 |
| 20260507172917 | 47 | 174 | 0.0 | 1.7 | 0.00 | 0.00 | 0.00 | 29 | 1016.8 |
| 20260507171803 | 47 | 153 | 1.7 | 1.7 | 0.00 | 0.00 | 0.00 | 29 | 1017.1 |
| 20260507171116 | 48 | 159 | 1.7 | 1.7 | 0.00 | 0.00 | 0.00 | 28 | 1016.7 |
| 20260507170005 | 49 | 160 | 2.6 | 2.6 | 0.00 | 0.00 | 0.00 | 27 | 1016.5 |
| 20260507165615 | 49 | 157 | 0.0 | 0.9 | 0.00 | 0.00 | 0.00 | 29 | 1016.3 |
| 20260507164712 | 47 | 193 | 0.0 | 3.5 | 0.00 | 0.00 | 0.00 | 28 | 1016.4 |
| 20260507163603 | 48 | 197 | 3.5 | 3.5 | 0.00 | 0.00 | 0.00 | 27 | 1016.3 |
| 20260507162705 | 49 | 218 | 0.0 | 2.6 | 0.00 | 0.00 | 0.00 | 27 | 1016.3 |
| 20260507161803 | 50 | 165 | 0.9 | 2.6 | 0.00 | 0.00 | 0.00 | 27 | 1016.2 |
| 20260507161117 | 50 | 200 | 2.6 | 2.6 | 0.00 | 0.00 | 0.00 | 27 | 1016.3 |
| 20260507160003 | 51 | 133 | 1.7 | 3.5 | 0.00 | 0.00 | 0.00 | 28 | 1016.3 |
| 20260507155616 | 50 | 158 | 0.0 | 3.5 | 0.00 | 0.00 | 0.00 | 28 | 1016.4 |
| 20260507154713 | 50 | 147 | 3.5 | 3.5 | 0.00 | 0.00 | 0.00 | 27 | 1016.5 |
| 20260507153603 | 49 | 174 | 0.9 | 1.7 | 0.00 | 0.00 | 0.00 | 27 | 1016.3 |
| 20260507152703 | 49 | 206 | 1.7 | 1.7 | 0.00 | 0.00 | 0.00 | 25 | 1016.3 |
| 20260507151808 | 51 | 173 | 1.7 | 4.3 | 0.00 | 0.00 | 0.00 | 26 | 1016.3 |
| 20260507150903 | 51 | 175 | 4.3 | 4.3 | 0.00 | 0.00 | 0.00 | 24 | 1016.3 |
| 20260507150004 | 51 | 225 | 1.7 | 7.0 | 0.00 | 0.00 | 0.00 | 27 | 1016.2 |
| 20260507145403 | 50 | 237 | 2.6 | 7.0 | 0.00 | 0.00 | 0.00 | 24 | 1016.2 |
| 20260507144714 | 49 | 310 | 2.6 | 2.6 | 0.00 | 0.00 | 0.00 | 25 | 1016.2 |
| 20260507143816 | 50 | 253 | 1.7 | 3.5 | 0.00 | 0.00 | 0.00 | 24 | 1016.2 |
| 20260507142703 | 49 | 270 | 2.6 | 5.2 | 0.00 | 0.00 | 0.00 | 27 | 1016.1 |
| 20260507141803 | 47 | 258 | 3.5 | 6.1 | 0.00 | 0.00 | 0.00 | 24 | 1016.2 |
| 20260507140903 | 47 | 252 | 3.5 | 6.1 | 0.00 | 0.00 | 0.00 | 23 | 1016.1 |
| 20260507140003 | 49 | 240 | 5.2 | 8.7 | 0.00 | 0.00 | 0.00 | 23 | 1016.1 |
| 20260507135403 | 49 | 260 | 3.5 | 8.7 | 0.00 | 0.00 | 0.00 | 24 | 1016.0 |
| 20260507134503 | 50 | 250 | 4.3 | 4.3 | 0.00 | 0.00 | 0.00 | 27 | 1016.0 |
| 20260507133604 | 50 | 238 | 4.3 | 5.2 | 0.00 | 0.00 | 0.00 | 28 | 1016.0 |
| 20260507132703 | 51 | 248 | 5.2 | 7.8 | 0.00 | 0.00 | 0.00 | 29 | 1016.0 |
| 20260507131805 | 51 | 243 | 1.7 | 5.2 | 0.00 | 0.00 | 0.00 | 30 | 1016.0 |
| 20260507130903 | 50 | 291 | 3.5 | 4.3 | 0.00 | 0.00 | 0.00 | 30 | 1015.9 |
| 20260507130216 | 52 | 216 | 4.3 | 5.2 | 0.00 | 0.00 | 0.00 | 29 | 1015.9 |
| 20260507125403 | 50 | 235 | 5.2 | 5.2 | 0.00 | 0.00 | 0.00 | 32 | 1016.0 |
| 20260507124715 | 49 | 243 | 4.3 | 5.2 | 0.00 | 0.00 | 0.00 | 32 | 1015.9 |
| 20260507123603 | 52 | 235 | 2.6 | 5.2 | 0.00 | 0.00 | 0.00 | 29 | 1015.9 |
| 20260507122705 | 53 | 289 | 4.3 | 9.6 | 0.00 | 0.00 | 0.00 | 33 | 1015.8 |
| 20260507121804 | 54 | 288 | 1.7 | 3.5 | 0.00 | 0.00 | 0.00 | 31 | 1015.9 |
| 20260507121114 | 52 | 304 | 1.7 | 7.0 | 0.00 | 0.00 | 0.00 | 33 | 1015.9 |
| 20260507120004 | 53 | 231 | 6.1 | 6.1 | 0.00 | 0.00 | 0.00 | 31 | 1015.8 |
| 20260507115403 | 57 | 190 | 3.5 | 4.3 | 0.00 | 0.00 | 0.00 | 28 | 1015.9 |
| 20260507114503 | 58 | 129 | 2.6 | 5.2 | 0.00 | 0.00 | 0.00 | 29 | 1015.9 |
| 20260507113605 | 57 | 59 | 1.7 | 4.3 | 0.00 | 0.00 | 0.00 | 31 | 1016.0 |
| 20260507112915 | 56 | 102 | 1.7 | 2.6 | 0.00 | 0.00 | 0.00 | 31 | 1015.9 |
| 20260507112013 | 58 | 34 | 2.6 | 3.5 | 0.00 | 0.00 | 0.00 | 32 | 1016.0 |
| 20260507110903 | 56 | 48 | 4.3 | 4.3 | 0.00 | 0.00 | 0.00 | 33 | 1016.2 |
| 20260507110003 | 55 | 16 | 0.9 | 3.5 | 0.00 | 0.00 | 0.00 | 34 | 1016.1 |
| 20260507105403 | 53 | 5 | 2.6 | 3.5 | 0.00 | 0.00 | 0.00 | 37 | 1016.1 |
| 20260507104716 | 52 | 328 | 3.5 | 5.2 | 0.00 | 0.00 | 0.00 | 35 | 1016.1 |
| 20260507103814 | 51 | 348 | 3.5 | 5.2 | 0.00 | 0.00 | 0.00 | 42 | 1016.0 |
| 20260507102703 | 44 | 295 | 5.2 | 10.4 | 0.00 | 0.00 | 0.00 | 43 | 1016.2 |
| 20260507102013 | 42 | 220 | 1.7 | 4.3 | 0.00 | 0.00 | 0.00 | 46 | 1016.2 |
| 20260507101116 | 42 | 204 | 4.3 | 6.1 | 0.00 | 0.00 | 0.00 | 43 | 1015.9 |
| 20260507100213 | 43 | 250 | 1.7 | 5.2 | 0.00 | 0.00 | 0.00 | 44 | 1015.7 |
| 20260507095403 | 41 | 208 | 5.2 | 5.2 | 0.00 | 0.00 | 0.00 | 46 | 1015.6 |
| 20260507094717 | 41 | 220 | 3.5 | 4.3 | 0.00 | 0.00 | 0.00 | 45 | 1015.4 |
| 20260507093603 | 42 | 227 | 4.3 | 4.3 | 0.00 | 0.00 | 0.00 | 44 | 1015.3 |
| 20260507092703 | 43 | 236 | 1.7 | 5.2 | 0.00 | 0.00 | 0.00 | 43 | 1015.2 |
| 20260507092014 | 43 | 230 | 4.3 | 4.3 | 0.00 | 0.00 | 0.00 | 43 | 1015.1 |
| 20260507091116 | 44 | 253 | 1.7 | 7.0 | 0.00 | 0.00 | 0.00 | 42 | 1014.9 |
| 20260507090004 | 44 | 204 | 4.3 | 6.1 | 0.00 | 0.00 | 0.00 | 42 | 1014.8 |
| 20260507085615 | 44 | 232 | 5.2 | 6.1 | 0.00 | 0.00 | 0.00 | 41 | 1014.7 |
| 20260507084503 | 48 | 347 | 3.5 | 3.5 | 0.00 | 0.00 | 0.00 | 40 | 1014.5 |
| 20260507083605 | 46 | 316 | 0.9 | 2.6 | 0.00 | 0.00 | 0.00 | 44 | 1014.4 |
| 20260507082703 | 44 | 330 | 0.9 | 3.5 | 0.00 | 0.00 | 0.00 | 44 | 1014.3 |
| 20260507082015 | 44 | 354 | 2.6 | 2.6 | 0.00 | 0.00 | 0.00 | 47 | 1014.2 |
| 20260507081117 | 42 | 298 | 0.9 | 4.3 | 0.00 | 0.00 | 0.00 | 49 | 1014.0 |
| 20260507080003 | 38 | 150 | 0.9 | 1.7 | 0.00 | 0.00 | 0.00 | 49 | 1013.8 |
| 20260507075616 | 38 | 186 | 1.7 | 4.3 | 0.00 | 0.00 | 0.00 | 49 | 1013.7 |
| 20260507074713 | 39 | 242 | 0.9 | 4.3 | 0.00 | 0.00 | 0.00 | 48 | 1014.0 |
| 20260507073603 | 39 | 250 | 3.5 | 3.5 | 0.00 | 0.00 | 0.00 | 48 | 1014.3 |
| 20260507072913 | 40 | 244 | 2.6 | 2.6 | 0.00 | 0.00 | 0.00 | 48 | 1014.3 |
| 20260507071803 | 40 | 263 | 0.0 | 5.2 | 0.00 | 0.00 | 0.00 | 49 | 1014.4 |
| 20260507071112 | 40 | 269 | 1.7 | 5.2 | 0.00 | 0.00 | 0.00 | 48 | 1014.4 |
| 20260507070215 | 39 | 253 | 0.0 | 3.5 | 0.00 | 0.00 | 0.00 | 51 | 1014.4 |
| 20260507065405 | 41 | 123 | 1.7 | 1.7 | 0.00 | 0.00 | 0.00 | 52 | 1014.5 |
| 20260507064504 | 39 | 225 | 0.0 | 0.9 | 0.00 | 0.00 | 0.00 | 54 | 1014.5 |
| 20260507063816 | 39 | 225 | 0.9 | 0.9 | 0.00 | 0.00 | 0.00 | 55 | 1014.5 |
| 20260507062703 | 38 | 135 | 0.9 | 0.9 | 0.00 | 0.00 | 0.00 | 59 | 1014.5 |
| 20260507061803 | 36 | 0 | 0.0 | 0.0 | 0.00 | 0.00 | 0.00 | 61 | 1014.3 |
| 20260507061113 | 35 | 0 | 0.0 | 0.0 | 0.00 | 0.00 | 0.00 | 62 | 1014.4 |
| 20260507060003 | 34 | 0 | 0.0 | 0.0 | 0.00 | 0.00 | 0.00 | 65 | 1014.4 |
| 20260507055403 | 33 | 120 | 0.0 | 0.9 | 0.00 | 0.00 | 0.00 | 66 | 1014.2 |
| 20260507054714 | 33 | 121 | 0.0 | 0.9 | 0.00 | 0.00 | 0.00 | 68 | 1014.2 |
| 20260507053817 | 32 | 112 | 0.0 | 0.9 | 0.00 | 0.00 | 0.00 | 69 | 1014.3 |
| 20260507052703 | 30 | 112 | 0.0 | 0.9 | 0.00 | 0.00 | 0.00 | 73 | 1014.2 |
| 20260507052016 | 28 | 112 | 0.0 | 0.9 | 0.00 | 0.00 | 0.00 | 74 | 1014.2 |
| 20260507050903 | 25 | 0 | 0.0 | 0.0 | 0.00 | 0.00 | 0.00 | 76 | 1014.2 |
| 20260507050216 | 24 | 0 | 0.0 | 0.0 | 0.00 | 0.00 | 0.00 | 76 | 1014.1 |
| 20260507045618 | 23 | 0 | 0.0 | 0.0 | 0.00 | 0.00 | 0.00 | 76 | 1014.0 |
| 20260507044503 | 23 | 0 | 0.0 | 0.0 | 0.00 | 0.00 | 0.00 | 76 | 1014.0 |
| 20260507043603 | 23 | 0 | 0.0 | 0.0 | 0.00 | 0.00 | 0.00 | 76 | 1014.0 |
| 20260507042703 | 23 | 0 | 0.0 | 0.0 | 0.00 | 0.00 | 0.00 | 76 | 1014.0 |
| 20260507041803 | 23 | 225 | 0.0 | 1.7 | 0.00 | 0.00 | 0.00 | 76 | 1013.9 |
| 20260507041114 | 23 | 39 | 0.0 | 1.7 | 0.00 | 0.00 | 0.00 | 76 | 1013.9 |
| 20260507040217 | 22 | 43 | 1.7 | 1.7 | 0.00 | 0.00 | 0.00 | 76 | 1014.0 |
| 20260507035613 | 22 | 25 | 0.9 | 1.7 | 0.00 | 0.00 | 0.00 | 76 | 1013.9 |
| 20260507034503 | 22 | 322 | 0.0 | 0.9 | 0.00 | 0.00 | 0.00 | 77 | 1013.7 |
| 20260507033813 | 21 | 67 | 0.0 | 0.9 | 0.00 | 0.00 | 0.00 | 75 | 1013.7 |
| 20260507032703 | 21 | 0 | 0.0 | 0.0 | 0.00 | 0.00 | 0.00 | 74 | 1013.8 |
| 20260507032013 | 22 | 0 | 0.0 | 0.0 | 0.00 | 0.00 | 0.00 | 74 | 1013.8 |
| 20260507030903 | 22 | 0 | 0.0 | 0.0 | 0.00 | 0.00 | 0.00 | 74 | 1013.6 |
| 20260507030003 | 22 | 135 | 0.0 | 1.7 | 0.00 | 0.00 | 0.00 | 73 | 1013.6 |
| 20260507025403 | 23 | 135 | 0.0 | 1.7 | 0.00 | 0.00 | 0.00 | 73 | 1013.6 |
| 20260507024503 | 23 | 67 | 0.0 | 1.7 | 0.00 | 0.00 | 0.00 | 73 | 1013.3 |
| 20260507023604 | 23 | 67 | 1.7 | 1.7 | 0.00 | 0.00 | 0.00 | 73 | 1013.3 |
| 20260507022916 | 23 | 135 | 0.0 | 1.7 | 0.00 | 0.00 | 0.00 | 73 | 1013.2 |
| 20260507021803 | 23 | 37 | 0.0 | 1.7 | 0.00 | 0.00 | 0.00 | 73 | 1013.1 |
| 20260507021116 | 23 | 31 | 1.7 | 1.7 | 0.00 | 0.00 | 0.00 | 72 | 1013.0 |
| 20260507020218 | 23 | 0 | 0.0 | 0.0 | 0.00 | 0.00 | 0.00 | 71 | 1013.1 |
| 20260507015615 | 23 | 0 | 0.0 | 0.0 | 0.00 | 0.00 | 0.00 | 71 | 1012.9 |
| 20260507014717 | 23 | 0 | 0.0 | 0.0 | 0.00 | 0.00 | 0.00 | 71 | 1013.0 |
| 20260507013603 | 24 | 0 | 0.0 | 0.0 | 0.00 | 0.00 | 0.00 | 69 | 1012.8 |
| 20260507012703 | 24 | 0 | 0.0 | 0.0 | 0.00 | 0.00 | 0.00 | 69 | 1012.8 |
| 20260507012014 | 24 | 270 | 0.0 | 0.9 | 0.00 | 0.00 | 0.00 | 68 | 1012.6 |